Find Starlink 37064

NORAD ID: 68157 Int'l Des: 2026-049 Owner: SPXS Country: US Constellation: starlink operational
LEOCIRCULARRETROGRADE

实时位置

正在加载3D地球...

关于 Starlink 37064

正在加载描述...

即将过境

Passes for default location (London). Set your location on the main map for personalized predictions.

高度历史

Loading altitude history...

两行轨道根数

1 68157U 26049R 26120.16667823 -.01897714 00000-0 -27967-1 0 9999
2 68157 97.2840 142.0202 0001290 74.0887 1.1038 15.58677682 6000
Epoch: Apr 30, 2026 • Age: 5 hours

当前状态

高度 420.4 km
速度 7.66 km/s
星下点 -67.38°S, 54.33°W
发射日期 Mar 13, 2026
运行时间 0.1 years
类型 internet

技术详情

分类 Payload
质量 575.00 kg
干质量 530.00 kg
总质量 575.00 kg
长度 0.30 m
直径 4.10 m
跨度 29.00 m
形状 Box + pan
制造商 SPXS
平台类型 Starlink V2MO
阶段状态 In Orbit
所有者/国家 SPXS/US

Most Searched